{"data":{"norad_id":65617,"epoch":"2026-09-20T19:24:24.574464Z","epoch_age_seconds":125788,"freshness":"FRESH","line1":"1 65617U 25209A   26263.80861776 -.00000129  00000+0 -21939-5 0  9997","line2":"2 65617  50.0013   8.9657 0000111 152.3194 207.7689 13.41475833 50507","mean_motion":13.41475833,"eccentricity":1.11e-5,"inclination_deg":50.0013,"raan_deg":8.9657,"arg_perigee_deg":152.3194,"mean_anomaly_deg":207.7689,"bstar":-2.1939e-6,"rev_number":5050,"period_min":107.34446082265,"perigee_km":1103.7036086185,"apogee_km":1103.8697073237,"semimajor_km":7481.9236579711,"source":"CELESTRAK","updated_at":"2026-09-21T09:00:15.441150Z"}}